This is the latest recevied weather packets stored in our database for station/object KC5TIL-3. If no packets are shown the sender has not sent any weather packets the latest 10 day(s).
| Time | Temp. | Humidity | Pressure | Rain* | Wind** | Luminosity | Snow |
|---|---|---|---|---|---|---|---|
| 1777640274 | 15° C | 66% | 1013.8 hPa | 0 mm | 1.79 m/s, 328° | - | - |
| 1777639669 | 15° C | 65% | 1013.8 hPa | 0 mm | 0 m/s | - | - |
| 1777639371 | 15° C | 64% | 1013.8 hPa | 0 mm | 0 m/s | - | - |
| 1777639070 | 15° C | 64% | 1013.8 hPa | 0 mm | 1.34 m/s, 25° | - | - |
| 1777638771 | 15° C | 64% | 1013.8 hPa | 0 mm | 1.79 m/s, 33° | - | - |
| 1777638474 | 15° C | 64% | 1013.8 hPa | 0 mm | 1.79 m/s, 41° | - | - |
| 1777638172 | 15° C | 63% | 1013.8 hPa | 0 mm | 0 m/s | - | - |
| 1777637874 | 15° C | 63% | 1013.8 hPa | 0 mm | 0 m/s | - | - |
| 1777637576 | 15° C | 62% | 1013.8 hPa | 0 mm | 0 m/s | - | - |
| 1777637274 | 15° C | 62% | 1013.8 hPa | 0 mm | 0 m/s | - | - |
| 1777636976 | 15° C | 62% | 1012.8 hPa | 0 mm | 1.79 m/s, 42° | - | - |
| 1777636679 | 14.44° C | 63% | 1012.8 hPa | 0 mm | 1.34 m/s, 64° | - | - |
| 1777636377 | 14.44° C | 63% | 1012.8 hPa | 0 mm | 2.24 m/s, 74° | - | - |
| 1777636078 | 14.44° C | 64% | 1012.8 hPa | 0 mm | 1.34 m/s, 32° | - | - |
| 1777635474 | 14.44° C | 64% | 1012.8 hPa | 0 mm | 1.34 m/s, 340° | - | - |
| 1777635176 | 14.44° C | 64% | 1012.8 hPa | 0 mm | 1.79 m/s, 331° | - | - |
| 1777634879 | 14.44° C | 66% | 1012.8 hPa | 0 mm | 1.34 m/s, 89° | - | - |
| 1777634577 | 14.44° C | 66% | 1012.8 hPa | 0 mm | 0 m/s | - | - |
| 1777634279 | 14.44° C | 65% | 1012.8 hPa | 0 mm | 1.79 m/s, 23° | - | - |
| 1777633981 | 14.44° C | 66% | 1012.8 hPa | 0 mm | 1.79 m/s, 28° | - | - |
| 1777633679 | 14.44° C | 66% | 1012.8 hPa | 0 mm | 2.24 m/s, 30° | - | - |
| 1777633381 | 14.44° C | 66% | 1012.8 hPa | 0 mm | 0 m/s | - | - |
| 1777633084 | 14.44° C | 65% | 1012.8 hPa | 0 mm | 0 m/s | - | - |
| 1777632782 | 14.44° C | 65% | 1012.8 hPa | 0 mm | 1.34 m/s, 15° | - | - |
| 1777632484 | 14.44° C | 64% | 1012.8 hPa | 0 mm | 0 m/s | - | - |
* Rain latest hour (hover to see other rain measurements)
** Current wind speed in m/s (hover to see current wind gust speed)